SL-16 DEB, 43353

Orbit data source: Space-Track

SL-16 DEB, 43353 is space debris in LEO originally from a launch on Tue, 31 Oct 1995 UTC launched from the Tyuratam Missile And Space Complex (TTMTR). Debris objects in space refer to the collection of defunct objects orbiting the Earth. Examples of debris include non-operational satellites, rocket bodies, and fragments generated from explosions, collisions, or faulty payload assembly.

Loading next visibility...
Identifier
43353, 1995-058N
Orbit
LEO
Country
Flag of CISCIS
Related business
Manufacturer
Unknown
Mission
Spacecraft
Bus & Motor
Unknown
Mass
Unknown
Launch date (UTC)
1995-10-31 (30 years ago)
Launch vehicle
Unknown
Launch site
Tyuratam Missile And Space Complex (TTMTR)
Object type
Payload
Rocket body
Debris
Shape & HBR
Unknown shape, 0.2 m
Radar Cross Section
Small (<0.1 m²)

Expand to show TLE details & history
Last TLE update: 18 hours ago

TLE from 18 hours ago
0 SL-16 DEB
1 43353U 95058N   25300.95167600  .00027257  00000-0  52631-2 0  9991
2 43353  70.9903 263.5519 0019185 200.2300 159.8090 14.63219115621857
Epoch: 2025-10-27T22:50Z
TLE epoch observation values (Epoch: 2025-10-27T22:50:24.806Z)
Latitude
-0.00002°
Longitude
-115.59761°
Altitude
697.972 km
Speed
7.501 km/s
True Right ascension
17h 34m 12s
True Declination
0° 00' 00"
Sunlit
Object was in daylight at epoch
Visualization orbit readout
Latitude
Unknown
Longitude
Unknown
Altitude
Unknown
Speed
Unknown
Apparent Right ascension
Unknown
Apparent Declination
Unknown
Sunlit
N/A
Visualization observer readout
Local Sidereal Time
11:52:06
Azimuth
Unknown
Elevation
Unknown
Doppler factor
Unknown
Orbital elements
Apogee altitude
694.22 km
Perigee altitude
667.135 km
Semi-major axis
7,058.815 km
Eccentricity
0.00192
Inclination
70.9903°
RAAN
263.5519°
Arg. of periapsis
200.23°
True anomaly
159.88471°
Mean anomaly
159.809°
Eccentric anomaly
159.84687°
Mean motion
3.6597 °/min
Orbital period
98.37 mins
BSTAR
0.0052631
Loading maneuver chart data...
Computing Atmospheric mass density...
Loading historical data...
Loading historical data...
Loading historical data...
Loading historical data...
Loading historical data...
Loading historical data...
Loading historical data...

Documentation

Showing up to 5 results
|